Year,Month,Day,Hour,Minute,Value (Times are PST for temperature in C)
2021,04,17,00,00,17.10
2021,04,17,00,01,17.10
2021,04,17,00,02,17.10
2021,04,17,00,03,17.10
2021,04,17,00,04,17.10
2021,04,17,00,05,17.10
2021,04,17,00,06,17.10
2021,04,17,00,07,17.00
2021,04,17,00,08,17.00
2021,04,17,00,09,16.90
2021,04,17,00,10,16.90
2021,04,17,00,11,16.80
2021,04,17,00,12,16.80
2021,04,17,00,13,16.70
2021,04,17,00,14,16.70
2021,04,17,00,15,16.60
2021,04,17,00,16,16.60
2021,04,17,00,17,16.60
2021,04,17,00,18,16.60
2021,04,17,00,19,16.60
2021,04,17,00,20,16.60
2021,04,17,00,21,16.60
2021,04,17,00,22,16.60
2021,04,17,00,23,16.60
2021,04,17,00,24,16.50
2021,04,17,00,25,16.50
2021,04,17,00,26,16.40
2021,04,17,00,27,16.30
2021,04,17,00,28,16.30
2021,04,17,00,29,16.30
2021,04,17,00,30,16.30
2021,04,17,00,31,16.40
2021,04,17,00,32,16.40
2021,04,17,00,33,16.40
2021,04,17,00,34,16.30
2021,04,17,00,35,16.20
2021,04,17,00,36,16.20
2021,04,17,00,37,16.10
2021,04,17,00,38,16.00
2021,04,17,00,39,16.10
2021,04,17,00,40,16.20
2021,04,17,00,41,16.20
2021,04,17,00,42,16.20
2021,04,17,00,43,16.20
2021,04,17,00,44,16.20
2021,04,17,00,45,16.10
2021,04,17,00,46,16.00
2021,04,17,00,47,15.90
2021,04,17,00,48,15.90
2021,04,17,00,49,16.00
2021,04,17,00,50,16.10
2021,04,17,00,51,16.20
2021,04,17,00,52,16.30
2021,04,17,00,53,16.40
2021,04,17,00,54,16.40
2021,04,17,00,55,16.30
2021,04,17,00,56,16.20
2021,04,17,00,57,16.10
2021,04,17,00,58,15.90
2021,04,17,00,59,15.80
2021,04,17,01,00,15.60
2021,04,17,01,01,15.50
2021,04,17,01,02,15.40
2021,04,17,01,03,15.20
2021,04,17,01,04,15.10
2021,04,17,01,05,15.00
2021,04,17,01,06,14.90
2021,04,17,01,07,14.80
2021,04,17,01,08,14.80
2021,04,17,01,09,14.90
2021,04,17,01,10,15.00
2021,04,17,01,11,15.20
2021,04,17,01,12,15.30
2021,04,17,01,13,15.40
2021,04,17,01,14,15.40
2021,04,17,01,15,15.50
2021,04,17,01,16,15.50
2021,04,17,01,17,15.60
2021,04,17,01,18,15.70
2021,04,17,01,19,15.70
2021,04,17,01,20,15.70
2021,04,17,01,21,15.80
2021,04,17,01,22,15.80
2021,04,17,01,23,15.90
2021,04,17,01,24,16.00
2021,04,17,01,25,16.00
2021,04,17,01,26,16.10
2021,04,17,01,27,16.10
2021,04,17,01,28,16.10
2021,04,17,01,29,16.10
2021,04,17,01,30,16.20
2021,04,17,01,31,16.30
2021,04,17,01,32,16.40
2021,04,17,01,33,16.50
2021,04,17,01,34,16.60
2021,04,17,01,35,16.60
2021,04,17,01,36,16.60
2021,04,17,01,37,16.60
2021,04,17,01,38,16.60
2021,04,17,01,39,16.60
2021,04,17,01,40,16.60
2021,04,17,01,41,16.50
2021,04,17,01,42,16.40
2021,04,17,01,43,16.30
2021,04,17,01,44,16.20
2021,04,17,01,45,16.00
2021,04,17,01,46,15.90
2021,04,17,01,47,15.80
2021,04,17,01,48,15.70
2021,04,17,01,49,15.50
2021,04,17,01,50,15.40
2021,04,17,01,51,15.10
2021,04,17,01,52,14.90
2021,04,17,01,53,14.70
2021,04,17,01,54,14.40
2021,04,17,01,55,14.20
2021,04,17,01,56,14.00
2021,04,17,01,57,13.90
2021,04,17,01,58,13.80
2021,04,17,01,59,13.70
2021,04,17,02,00,13.60
2021,04,17,02,01,13.50
2021,04,17,02,02,13.40
2021,04,17,02,03,13.30
2021,04,17,02,04,13.20
2021,04,17,02,05,13.10
2021,04,17,02,06,13.00
2021,04,17,02,07,12.90
2021,04,17,02,08,12.90
2021,04,17,02,09,12.90
2021,04,17,02,10,13.10
2021,04,17,02,11,13.20
2021,04,17,02,12,13.40
2021,04,17,02,13,13.50
2021,04,17,02,14,13.60
2021,04,17,02,15,13.70
2021,04,17,02,16,13.60
2021,04,17,02,17,13.60
2021,04,17,02,18,13.50
2021,04,17,02,19,13.40
2021,04,17,02,20,13.20
2021,04,17,02,21,13.10
2021,04,17,02,22,13.00
2021,04,17,02,23,13.10
2021,04,17,02,24,13.30
2021,04,17,02,25,13.40
2021,04,17,02,26,13.50
2021,04,17,02,27,13.60
2021,04,17,02,28,13.70
2021,04,17,02,29,13.60
2021,04,17,02,30,13.60
2021,04,17,02,31,13.60
2021,04,17,02,32,13.60
2021,04,17,02,33,13.70
2021,04,17,02,34,13.70
2021,04,17,02,35,13.80
2021,04,17,02,36,13.90
2021,04,17,02,37,14.00
2021,04,17,02,38,14.10
2021,04,17,02,39,14.10
2021,04,17,02,40,14.10
2021,04,17,02,41,14.00
2021,04,17,02,42,13.90
2021,04,17,02,43,13.80
2021,04,17,02,44,13.70
2021,04,17,02,45,13.60
2021,04,17,02,46,13.50
2021,04,17,02,47,13.40
2021,04,17,02,48,13.30
2021,04,17,02,49,13.30
2021,04,17,02,50,13.30
2021,04,17,02,51,13.20
2021,04,17,02,52,13.20
2021,04,17,02,53,13.10
2021,04,17,02,54,13.10
2021,04,17,02,55,13.10
2021,04,17,02,56,13.10
2021,04,17,02,57,13.10
2021,04,17,02,58,13.20
2021,04,17,02,59,13.30
2021,04,17,03,00,13.30
2021,04,17,03,01,13.40
2021,04,17,03,02,13.40
2021,04,17,03,03,13.40
2021,04,17,03,04,13.40
2021,04,17,03,05,13.40
2021,04,17,03,06,13.40
2021,04,17,03,07,13.50
2021,04,17,03,08,13.60
2021,04,17,03,09,13.60
2021,04,17,03,10,13.70
2021,04,17,03,11,13.80
2021,04,17,03,12,13.80
2021,04,17,03,13,13.80
2021,04,17,03,14,13.80
2021,04,17,03,15,14.20
2021,04,17,03,16,14.40
2021,04,17,03,17,14.40
2021,04,17,03,18,14.40
2021,04,17,03,19,14.40
2021,04,17,03,20,14.40
2021,04,17,03,21,14.20
2021,04,17,03,22,14.10
2021,04,17,03,23,13.90
2021,04,17,03,24,13.80
2021,04,17,03,25,13.60
2021,04,17,03,26,13.50
2021,04,17,03,27,13.40
2021,04,17,03,28,13.40
2021,04,17,03,29,13.40
2021,04,17,03,30,13.40
2021,04,17,03,31,13.40
2021,04,17,03,32,13.40
2021,04,17,03,33,13.40
2021,04,17,03,34,13.40
2021,04,17,03,35,13.40
2021,04,17,03,36,13.40
2021,04,17,03,37,13.30
2021,04,17,03,38,13.30
2021,04,17,03,39,13.20
2021,04,17,03,40,13.20
2021,04,17,03,41,13.10
2021,04,17,03,42,12.90
2021,04,17,03,43,12.80
2021,04,17,03,44,12.80
2021,04,17,03,45,12.80
2021,04,17,03,46,12.70
2021,04,17,03,47,12.70
2021,04,17,03,48,12.70
2021,04,17,03,49,12.70
2021,04,17,03,50,12.60
2021,04,17,03,51,12.60
2021,04,17,03,52,12.50
2021,04,17,03,53,12.30
2021,04,17,03,54,12.30
2021,04,17,03,55,12.20
2021,04,17,03,56,12.10
2021,04,17,03,57,12.10
2021,04,17,03,58,12.00
2021,04,17,03,59,12.00
2021,04,17,04,00,12.00
2021,04,17,04,01,12.00
2021,04,17,04,02,12.00
2021,04,17,04,03,11.90
2021,04,17,04,04,11.90
2021,04,17,04,05,11.90
2021,04,17,04,06,11.80
2021,04,17,04,07,11.70
2021,04,17,04,08,11.70
2021,04,17,04,09,11.60
2021,04,17,04,10,11.60
2021,04,17,04,11,11.60
2021,04,17,04,12,11.60
2021,04,17,04,13,11.70
2021,04,17,04,14,11.70
2021,04,17,04,15,11.80
2021,04,17,04,16,11.80
2021,04,17,04,17,11.90
2021,04,17,04,18,11.90
2021,04,17,04,19,11.80
2021,04,17,04,20,11.70
2021,04,17,04,21,11.70
2021,04,17,04,22,11.60
2021,04,17,04,23,11.60
2021,04,17,04,24,11.60
2021,04,17,04,25,11.50
2021,04,17,04,26,11.40
2021,04,17,04,27,11.30
2021,04,17,04,28,11.20
2021,04,17,04,29,11.10
2021,04,17,04,30,11.00
2021,04,17,04,31,10.80
2021,04,17,04,32,10.80
2021,04,17,04,33,10.70
2021,04,17,04,34,10.60
2021,04,17,04,35,10.50
2021,04,17,04,36,10.40
2021,04,17,04,37,10.30
2021,04,17,04,38,10.20
2021,04,17,04,39,10.20
2021,04,17,04,40,10.20
2021,04,17,04,41,10.20
2021,04,17,04,42,10.20
2021,04,17,04,43,10.20
2021,04,17,04,44,10.20
2021,04,17,04,45,10.20
2021,04,17,04,46,10.10
2021,04,17,04,47,10.20
2021,04,17,04,48,10.20
2021,04,17,04,49,10.20
2021,04,17,04,50,10.30
2021,04,17,04,51,10.30
2021,04,17,04,52,10.40
2021,04,17,04,53,10.40
2021,04,17,04,54,10.50
2021,04,17,04,55,10.50
2021,04,17,04,56,10.60
2021,04,17,04,57,10.60
2021,04,17,04,58,10.60
2021,04,17,04,59,10.70
2021,04,17,05,00,10.70
2021,04,17,05,01,10.70
2021,04,17,05,02,10.70
2021,04,17,05,03,10.70
2021,04,17,05,04,10.70
2021,04,17,05,05,10.70
2021,04,17,05,06,10.70
2021,04,17,05,07,10.70
2021,04,17,05,08,10.80
2021,04,17,05,09,10.70
2021,04,17,05,10,10.70
2021,04,17,05,11,10.70
2021,04,17,05,12,10.70
2021,04,17,05,13,10.70
2021,04,17,05,14,10.70
2021,04,17,05,15,10.80
2021,04,17,05,16,10.80
2021,04,17,05,17,10.90
2021,04,17,05,18,11.00
2021,04,17,05,19,11.00
2021,04,17,05,20,11.00
2021,04,17,05,21,11.00
2021,04,17,05,22,11.00
2021,04,17,05,23,11.00
2021,04,17,05,24,11.00
2021,04,17,05,25,10.90
2021,04,17,05,26,11.00
2021,04,17,05,27,10.90
2021,04,17,05,28,10.90
2021,04,17,05,29,10.90
2021,04,17,05,30,10.90
2021,04,17,05,31,10.90
2021,04,17,05,32,10.90
2021,04,17,05,33,11.00
2021,04,17,05,34,11.00
2021,04,17,05,35,11.00
2021,04,17,05,36,11.00
2021,04,17,05,37,11.00
2021,04,17,05,38,11.10
2021,04,17,05,39,11.40
2021,04,17,05,40,11.60
2021,04,17,05,41,11.80
2021,04,17,05,42,12.00
2021,04,17,05,43,12.20
2021,04,17,05,44,12.30
2021,04,17,05,45,12.40
2021,04,17,05,46,12.40
2021,04,17,05,47,12.40
2021,04,17,05,48,12.40
2021,04,17,05,49,12.50
2021,04,17,05,50,12.50
2021,04,17,05,51,12.40
2021,04,17,05,52,12.40
2021,04,17,05,53,12.40
2021,04,17,05,54,12.50
2021,04,17,05,55,12.40
2021,04,17,05,56,12.40
2021,04,17,05,57,12.40
2021,04,17,05,58,12.30
2021,04,17,05,59,12.20
2021,04,17,06,00,12.10
2021,04,17,06,01,12.00
2021,04,17,06,02,11.90
2021,04,17,06,03,11.70
2021,04,17,06,04,11.60
2021,04,17,06,05,11.40
2021,04,17,06,06,11.30
2021,04,17,06,07,11.30
2021,04,17,06,08,11.20
2021,04,17,06,09,11.10
2021,04,17,06,10,11.10
2021,04,17,06,11,11.10
2021,04,17,06,12,11.10
2021,04,17,06,13,11.10
2021,04,17,06,14,11.10
2021,04,17,06,15,11.00
2021,04,17,06,16,10.90
2021,04,17,06,17,10.90
2021,04,17,06,18,10.80
2021,04,17,06,19,10.80
2021,04,17,06,20,10.80
2021,04,17,06,21,10.90
2021,04,17,06,22,11.00
2021,04,17,06,23,11.10
2021,04,17,06,24,11.30
2021,04,17,06,25,11.40
2021,04,17,06,26,11.50
2021,04,17,06,27,11.60
2021,04,17,06,28,11.70
2021,04,17,06,29,11.70
2021,04,17,06,30,11.70
2021,04,17,06,31,11.60
2021,04,17,06,32,11.60
2021,04,17,06,33,11.60
2021,04,17,06,34,11.50
2021,04,17,06,35,11.40
2021,04,17,06,36,11.40
2021,04,17,06,37,11.40
2021,04,17,06,38,11.40
2021,04,17,06,39,11.50
2021,04,17,06,40,11.60
2021,04,17,06,41,11.70
2021,04,17,06,42,11.80
2021,04,17,06,43,11.90
2021,04,17,06,44,12.00
2021,04,17,06,45,12.00
2021,04,17,06,46,12.10
2021,04,17,06,47,12.10
2021,04,17,06,48,12.10
2021,04,17,06,49,12.10
2021,04,17,06,50,12.10
2021,04,17,06,51,12.00
2021,04,17,06,52,12.00
2021,04,17,06,53,12.00
2021,04,17,06,54,11.90
2021,04,17,06,55,11.90
2021,04,17,06,56,11.90
2021,04,17,06,57,11.80
2021,04,17,06,58,11.80
2021,04,17,06,59,11.80
2021,04,17,07,00,11.80
2021,04,17,07,01,11.80
2021,04,17,07,02,11.80
2021,04,17,07,03,11.80
2021,04,17,07,04,11.80
2021,04,17,07,05,11.80
2021,04,17,07,06,11.80
2021,04,17,07,07,11.80
2021,04,17,07,08,11.90
2021,04,17,07,09,11.90
2021,04,17,07,10,11.90
2021,04,17,07,11,12.00
2021,04,17,07,12,12.00
2021,04,17,07,13,12.10
2021,04,17,07,14,12.10
2021,04,17,07,15,12.10
2021,04,17,07,16,12.10
2021,04,17,07,17,12.10
2021,04,17,07,18,12.10
2021,04,17,07,19,12.20
2021,04,17,07,20,12.20
2021,04,17,07,21,12.20
2021,04,17,07,22,12.20
2021,04,17,07,23,12.20
2021,04,17,07,24,12.10
2021,04,17,07,25,12.10
2021,04,17,07,26,12.10
2021,04,17,07,27,12.10
2021,04,17,07,28,12.10
2021,04,17,07,29,12.20
2021,04,17,07,30,12.20
2021,04,17,07,31,12.30
2021,04,17,07,32,12.30
2021,04,17,07,33,12.40
2021,04,17,07,34,12.40
2021,04,17,07,35,12.40
2021,04,17,07,36,12.40
2021,04,17,07,37,12.50
2021,04,17,07,38,12.60
2021,04,17,07,39,12.60
2021,04,17,07,40,12.60
2021,04,17,07,41,12.60
2021,04,17,07,42,12.50
2021,04,17,07,43,12.40
2021,04,17,07,44,12.40
2021,04,17,07,45,12.40
2021,04,17,07,46,12.40
2021,04,17,07,47,12.40
2021,04,17,07,48,12.40
2021,04,17,07,49,12.40
2021,04,17,07,50,12.50
2021,04,17,07,51,12.60
2021,04,17,07,52,12.60
2021,04,17,07,53,12.70
2021,04,17,07,54,12.70
2021,04,17,07,55,12.70
2021,04,17,07,56,12.80
2021,04,17,07,57,12.90
2021,04,17,07,58,13.00
2021,04,17,07,59,13.00
2021,04,17,08,00,13.10
2021,04,17,08,01,13.20
2021,04,17,08,02,13.20
2021,04,17,08,03,13.20
2021,04,17,08,04,13.20
2021,04,17,08,05,13.30
2021,04,17,08,06,13.30
2021,04,17,08,07,13.30
2021,04,17,08,08,13.50
2021,04,17,08,09,13.50
2021,04,17,08,10,13.70
2021,04,17,08,11,13.70
2021,04,17,08,12,13.80
2021,04,17,08,13,13.80
2021,04,17,08,14,13.80
2021,04,17,08,15,13.80
2021,04,17,08,16,13.80
2021,04,17,08,17,13.80
2021,04,17,08,18,13.80
2021,04,17,08,19,13.80
2021,04,17,08,20,13.80
2021,04,17,08,21,13.80
2021,04,17,08,22,13.80
2021,04,17,08,23,13.70
2021,04,17,08,24,13.70
2021,04,17,08,25,13.70
2021,04,17,08,26,13.70
2021,04,17,08,27,13.60
2021,04,17,08,28,13.60
2021,04,17,08,29,13.50
2021,04,17,08,30,13.40
2021,04,17,08,31,13.30
2021,04,17,08,32,13.30
2021,04,17,08,33,13.20
2021,04,17,08,34,13.20
2021,04,17,08,35,13.20
2021,04,17,08,36,13.20
2021,04,17,08,37,13.20
2021,04,17,08,38,13.20
2021,04,17,08,39,13.20
2021,04,17,08,40,13.20
2021,04,17,08,41,13.20
2021,04,17,08,42,13.20
2021,04,17,08,43,13.30
2021,04,17,08,44,13.30
2021,04,17,08,45,13.20
2021,04,17,08,46,13.00
2021,04,17,08,47,12.90
2021,04,17,08,48,12.90
2021,04,17,08,49,12.80
2021,04,17,08,50,12.80
2021,04,17,08,51,12.70
2021,04,17,08,52,12.70
2021,04,17,08,53,12.70
2021,04,17,08,54,12.80
2021,04,17,08,55,12.80
2021,04,17,08,56,12.90
2021,04,17,08,57,12.90
2021,04,17,08,58,13.10
2021,04,17,08,59,13.10
2021,04,17,09,00,13.20
2021,04,17,09,01,13.30
2021,04,17,09,02,13.30
2021,04,17,09,03,13.30
2021,04,17,09,04,13.40
2021,04,17,09,05,13.40
2021,04,17,09,06,13.50
2021,04,17,09,07,13.50
2021,04,17,09,08,13.50
2021,04,17,09,09,13.50
2021,04,17,09,10,13.50
2021,04,17,09,11,13.50
2021,04,17,09,12,13.50
2021,04,17,09,13,13.60
2021,04,17,09,14,13.60
2021,04,17,09,15,13.60
2021,04,17,09,16,13.60
2021,04,17,09,17,13.70
2021,04,17,09,18,13.70
2021,04,17,09,19,13.80
2021,04,17,09,20,13.80
2021,04,17,09,21,13.80
2021,04,17,09,22,13.90
2021,04,17,09,23,13.90
2021,04,17,09,24,13.90
2021,04,17,09,25,13.90
2021,04,17,09,26,13.90
2021,04,17,09,27,13.90
2021,04,17,09,28,13.90
2021,04,17,09,29,13.90
2021,04,17,09,30,13.90
2021,04,17,09,31,13.90
2021,04,17,09,32,13.90
2021,04,17,09,33,13.90
2021,04,17,09,34,13.90
2021,04,17,09,35,13.90
2021,04,17,09,36,13.80
2021,04,17,09,37,13.80
2021,04,17,09,38,13.80
2021,04,17,09,39,13.70
2021,04,17,09,40,13.70
2021,04,17,09,41,13.70
2021,04,17,09,42,13.60
2021,04,17,09,43,13.60
2021,04,17,09,44,13.60
2021,04,17,09,45,13.60
2021,04,17,09,46,13.60
2021,04,17,09,47,13.50
2021,04,17,09,48,13.50
2021,04,17,09,49,13.50
2021,04,17,09,50,13.50
2021,04,17,09,51,13.50
2021,04,17,09,52,13.40
2021,04,17,09,53,13.40
2021,04,17,09,54,13.40
2021,04,17,09,55,13.40
2021,04,17,09,56,13.40
2021,04,17,09,57,13.40
2021,04,17,09,58,13.40
2021,04,17,09,59,13.30
2021,04,17,10,00,13.20
2021,04,17,10,01,13.10
2021,04,17,10,02,13.00
2021,04,17,10,03,13.00
2021,04,17,10,04,12.90
2021,04,17,10,05,12.90
2021,04,17,10,06,12.90
2021,04,17,10,07,12.90
2021,04,17,10,08,12.90
2021,04,17,10,09,13.00
2021,04,17,10,10,12.90
2021,04,17,10,11,12.90
2021,04,17,10,12,12.80
2021,04,17,10,13,12.70
2021,04,17,10,14,12.60
2021,04,17,10,15,12.60
2021,04,17,10,16,12.60
2021,04,17,10,17,12.60
2021,04,17,10,18,12.60
2021,04,17,10,19,12.50
2021,04,17,10,20,12.50
2021,04,17,10,21,12.50
2021,04,17,10,22,12.70
2021,04,17,10,23,12.80
2021,04,17,10,24,12.80
2021,04,17,10,25,12.80
2021,04,17,10,26,12.80
2021,04,17,10,27,12.70
2021,04,17,10,28,12.70
2021,04,17,10,29,12.70
2021,04,17,10,30,12.80
2021,04,17,10,31,12.80
2021,04,17,10,32,12.80
2021,04,17,10,33,12.80
2021,04,17,10,34,12.70
2021,04,17,10,35,12.60
2021,04,17,10,36,12.50
2021,04,17,10,37,12.40
2021,04,17,10,38,12.40
2021,04,17,10,39,12.30
2021,04,17,10,40,12.30
2021,04,17,10,41,12.20
2021,04,17,10,42,12.30
2021,04,17,10,43,12.30
2021,04,17,10,44,12.30
2021,04,17,10,45,12.30
2021,04,17,10,46,12.40
2021,04,17,10,47,12.50
2021,04,17,10,48,12.50
2021,04,17,10,49,12.60
2021,04,17,10,50,12.70
2021,04,17,10,51,12.70
2021,04,17,10,52,12.70
2021,04,17,10,53,12.70
2021,04,17,10,54,12.80
2021,04,17,10,55,12.80
2021,04,17,10,56,12.90
2021,04,17,10,57,12.90
2021,04,17,10,58,12.90
2021,04,17,10,59,12.90
2021,04,17,11,00,12.90
2021,04,17,11,01,12.80
2021,04,17,11,02,12.80
2021,04,17,11,03,12.80
2021,04,17,11,04,12.90
2021,04,17,11,05,12.90
2021,04,17,11,06,13.00
2021,04,17,11,07,13.00
2021,04,17,11,08,13.00
2021,04,17,11,09,12.90
2021,04,17,11,10,12.90
2021,04,17,11,11,12.90
2021,04,17,11,12,12.80
2021,04,17,11,13,12.80
2021,04,17,11,14,12.80
2021,04,17,11,15,12.80
2021,04,17,11,16,12.80
2021,04,17,11,17,12.80
2021,04,17,11,18,12.80
2021,04,17,11,19,12.80
2021,04,17,11,20,12.80
2021,04,17,11,21,12.70
2021,04,17,11,22,12.70
2021,04,17,11,23,12.70
2021,04,17,11,24,12.70
2021,04,17,11,25,12.70
2021,04,17,11,26,12.70
2021,04,17,11,27,12.70
2021,04,17,11,28,12.70
2021,04,17,11,29,12.70
2021,04,17,11,30,12.70
2021,04,17,11,31,12.70
2021,04,17,11,32,12.70
2021,04,17,11,33,12.70
2021,04,17,11,34,12.70
2021,04,17,11,35,12.70
2021,04,17,11,36,12.70
2021,04,17,11,37,12.70
2021,04,17,11,38,12.70
2021,04,17,11,39,12.70
2021,04,17,11,40,12.70
2021,04,17,11,41,12.70
2021,04,17,11,42,12.60
2021,04,17,11,43,12.60
2021,04,17,11,44,12.50
2021,04,17,11,45,12.50
2021,04,17,11,46,12.50
2021,04,17,11,47,12.40
2021,04,17,11,48,12.40
2021,04,17,11,49,12.40
2021,04,17,11,50,12.40
2021,04,17,11,51,12.40
2021,04,17,11,52,12.40
2021,04,17,11,53,12.40
2021,04,17,11,54,12.40
2021,04,17,11,55,12.30
2021,04,17,11,56,12.30
2021,04,17,11,57,12.30
2021,04,17,11,58,12.30
2021,04,17,11,59,12.30
2021,04,17,12,00,12.30
2021,04,17,12,01,12.40
2021,04,17,12,02,12.50
2021,04,17,12,03,12.60
2021,04,17,12,04,12.70
2021,04,17,12,05,12.70
2021,04,17,12,06,12.70
2021,04,17,12,07,12.70
2021,04,17,12,08,12.60
2021,04,17,12,09,12.60
2021,04,17,12,10,12.60
2021,04,17,12,11,12.60
2021,04,17,12,12,12.60
2021,04,17,12,13,12.70
2021,04,17,12,14,12.80
2021,04,17,12,15,12.80
2021,04,17,12,16,12.90
2021,04,17,12,17,13.00
2021,04,17,12,18,13.00
2021,04,17,12,19,13.10
2021,04,17,12,20,13.10
2021,04,17,12,21,13.10
2021,04,17,12,22,13.10
2021,04,17,12,23,13.10
2021,04,17,12,24,13.10
2021,04,17,12,25,13.20
2021,04,17,12,26,13.20
2021,04,17,12,27,13.30
2021,04,17,12,28,13.30
2021,04,17,12,29,13.20
2021,04,17,12,30,13.00
2021,04,17,12,31,12.80
2021,04,17,12,32,12.80
2021,04,17,12,33,12.90
2021,04,17,12,34,13.00
2021,04,17,12,35,13.10
2021,04,17,12,36,13.10
2021,04,17,12,37,13.20
2021,04,17,12,38,13.20
2021,04,17,12,39,13.30
2021,04,17,12,40,13.40
2021,04,17,12,41,13.40
2021,04,17,12,42,13.50
2021,04,17,12,43,13.50
2021,04,17,12,44,13.60
2021,04,17,12,45,13.60
2021,04,17,12,46,13.70
2021,04,17,12,47,13.80
2021,04,17,12,48,13.80
2021,04,17,12,49,13.90
2021,04,17,12,50,13.90
2021,04,17,12,51,13.90
2021,04,17,12,52,14.00
2021,04,17,12,53,14.00
2021,04,17,12,54,14.00
2021,04,17,12,55,14.00
2021,04,17,12,56,14.00
2021,04,17,12,57,14.00
2021,04,17,12,58,14.00
2021,04,17,12,59,14.00
2021,04,17,13,00,14.00
2021,04,17,13,01,14.10
2021,04,17,13,02,14.10
2021,04,17,13,03,14.10
2021,04,17,13,04,14.10
2021,04,17,13,05,14.10
2021,04,17,13,06,14.20
2021,04,17,13,07,14.20
2021,04,17,13,08,14.30
2021,04,17,13,09,14.30
2021,04,17,13,10,14.30
2021,04,17,13,11,14.30
2021,04,17,13,12,14.30
2021,04,17,13,13,14.20
2021,04,17,13,14,14.20
2021,04,17,13,15,14.30
2021,04,17,13,16,14.30
2021,04,17,13,17,14.40
2021,04,17,13,18,14.40
2021,04,17,13,19,14.50
2021,04,17,13,20,14.50
2021,04,17,13,21,14.50
2021,04,17,13,22,14.60
2021,04,17,13,23,14.70
2021,04,17,13,24,14.70
2021,04,17,13,25,14.70
2021,04,17,13,26,14.60
2021,04,17,13,27,14.60
2021,04,17,13,28,14.50
2021,04,17,13,29,14.40
2021,04,17,13,30,14.40
2021,04,17,13,31,14.40
2021,04,17,13,32,14.50
2021,04,17,13,33,14.50
2021,04,17,13,34,14.50
2021,04,17,13,35,14.60
2021,04,17,13,36,14.60
2021,04,17,13,37,14.50
2021,04,17,13,38,14.50
2021,04,17,13,39,14.50
2021,04,17,13,40,14.40
2021,04,17,13,41,14.40
2021,04,17,13,42,14.40
2021,04,17,13,43,14.40
2021,04,17,13,44,14.30
2021,04,17,13,45,14.30
2021,04,17,13,46,14.30
2021,04,17,13,47,14.30
2021,04,17,13,48,14.20
2021,04,17,13,49,14.20
2021,04,17,13,50,14.20
2021,04,17,13,51,14.20
2021,04,17,13,52,14.20
2021,04,17,13,53,14.30
2021,04,17,13,54,14.30
2021,04,17,13,55,14.40
2021,04,17,13,56,14.40
2021,04,17,13,57,14.50
2021,04,17,13,58,14.50
2021,04,17,13,59,14.50
2021,04,17,14,00,14.40
2021,04,17,14,01,14.40
2021,04,17,14,02,14.40
2021,04,17,14,03,14.30
2021,04,17,14,04,14.40
2021,04,17,14,05,14.40
2021,04,17,14,06,14.50
2021,04,17,14,07,14.50
2021,04,17,14,08,14.50
2021,04,17,14,09,14.60
2021,04,17,14,10,14.70
2021,04,17,14,11,14.70
2021,04,17,14,12,14.80
2021,04,17,14,13,14.90
2021,04,17,14,14,14.90
2021,04,17,14,15,15.10
2021,04,17,14,16,15.20
2021,04,17,14,17,15.30
2021,04,17,14,18,15.40
2021,04,17,14,19,15.50
2021,04,17,14,20,15.60
2021,04,17,14,21,15.60
2021,04,17,14,22,15.60
2021,04,17,14,23,15.60
2021,04,17,14,24,15.60
2021,04,17,14,25,15.50
2021,04,17,14,26,15.40
2021,04,17,14,27,15.40
2021,04,17,14,28,15.40
2021,04,17,14,29,15.40
2021,04,17,14,30,15.40
2021,04,17,14,31,15.30
2021,04,17,14,32,15.40
2021,04,17,14,33,15.40
2021,04,17,14,34,15.40
2021,04,17,14,35,15.50
2021,04,17,14,36,15.60
2021,04,17,14,37,15.60
2021,04,17,14,38,15.60
2021,04,17,14,39,15.60
2021,04,17,14,40,15.60
2021,04,17,14,41,15.60
2021,04,17,14,42,15.60
2021,04,17,14,43,15.60
2021,04,17,14,44,15.50
2021,04,17,14,45,15.40
2021,04,17,14,46,15.50
2021,04,17,14,47,15.60
2021,04,17,14,48,15.80
2021,04,17,14,49,15.80
2021,04,17,14,50,15.70
2021,04,17,14,51,15.70
2021,04,17,14,52,15.80
2021,04,17,14,53,16.00
2021,04,17,14,54,16.30
2021,04,17,14,55,16.50
2021,04,17,14,56,16.80
2021,04,17,14,57,16.90
2021,04,17,14,58,17.00
2021,04,17,14,59,17.30
2021,04,17,15,00,17.40
2021,04,17,15,01,17.70
2021,04,17,15,02,17.90
2021,04,17,15,03,18.00
2021,04,17,15,04,18.10
2021,04,17,15,05,18.20
2021,04,17,15,06,18.20
2021,04,17,15,07,18.30
2021,04,17,15,08,18.30
2021,04,17,15,09,18.30
2021,04,17,15,10,18.30
2021,04,17,15,11,18.30
2021,04,17,15,12,18.40
2021,04,17,15,13,18.40
2021,04,17,15,14,18.40
2021,04,17,15,15,18.30
2021,04,17,15,16,18.30
2021,04,17,15,17,18.30
2021,04,17,15,18,18.40
2021,04,17,15,19,18.50
2021,04,17,15,20,18.60
2021,04,17,15,21,18.60
2021,04,17,15,22,18.60
2021,04,17,15,23,18.70
2021,04,17,15,24,18.70
2021,04,17,15,25,18.80
2021,04,17,15,26,18.80
2021,04,17,15,27,18.90
2021,04,17,15,28,19.00
2021,04,17,15,29,19.00
2021,04,17,15,30,19.00
2021,04,17,15,31,19.10
2021,04,17,15,32,19.20
2021,04,17,15,33,19.20
2021,04,17,15,34,19.30
2021,04,17,15,35,19.30
2021,04,17,15,36,19.30
2021,04,17,15,37,19.40
2021,04,17,15,38,19.40
2021,04,17,15,39,19.40
2021,04,17,15,40,19.40
2021,04,17,15,41,19.40
2021,04,17,15,42,19.40
2021,04,17,15,43,19.40
2021,04,17,15,44,19.40
2021,04,17,15,45,19.40
2021,04,17,15,46,19.20
2021,04,17,15,47,19.10
2021,04,17,15,48,19.20
2021,04,17,15,49,19.20
2021,04,17,15,50,19.20
2021,04,17,15,51,19.30
2021,04,17,15,52,19.40
2021,04,17,15,53,19.50
2021,04,17,15,54,19.50
2021,04,17,15,55,19.50
2021,04,17,15,56,19.50
2021,04,17,15,57,19.50
2021,04,17,15,58,19.50
2021,04,17,15,59,19.40
2021,04,17,16,00,19.40
2021,04,17,16,01,19.40
2021,04,17,16,02,19.40
2021,04,17,16,03,19.40
2021,04,17,16,04,19.30
2021,04,17,16,05,19.30
2021,04,17,16,06,19.20
2021,04,17,16,07,19.20
2021,04,17,16,08,19.20
2021,04,17,16,09,19.30
2021,04,17,16,10,19.30
2021,04,17,16,11,19.30
2021,04,17,16,12,19.20
2021,04,17,16,13,19.20
2021,04,17,16,14,19.30
2021,04,17,16,15,19.40
2021,04,17,16,16,19.40
2021,04,17,16,17,19.40
2021,04,17,16,18,19.40
2021,04,17,16,19,19.40
2021,04,17,16,20,19.40
2021,04,17,16,21,19.40
2021,04,17,16,22,19.50
2021,04,17,16,23,19.60
2021,04,17,16,24,19.70
2021,04,17,16,25,19.70
2021,04,17,16,26,19.80
2021,04,17,16,27,19.80
2021,04,17,16,28,19.80
2021,04,17,16,29,19.80
2021,04,17,16,30,19.80
2021,04,17,16,31,19.80
2021,04,17,16,32,19.90
2021,04,17,16,33,20.00
2021,04,17,16,34,20.10
2021,04,17,16,35,20.10
2021,04,17,16,36,20.10
2021,04,17,16,37,20.10
2021,04,17,16,38,20.20
2021,04,17,16,39,20.20
2021,04,17,16,40,20.20
2021,04,17,16,41,20.20
2021,04,17,16,42,20.30
2021,04,17,16,43,20.30
2021,04,17,16,44,20.30
2021,04,17,16,45,20.30
2021,04,17,16,46,20.20
2021,04,17,16,47,19.90
2021,04,17,16,48,19.70
2021,04,17,16,49,19.50
2021,04,17,16,50,19.30
2021,04,17,16,51,19.00
2021,04,17,16,52,18.80
2021,04,17,16,53,18.60
2021,04,17,16,54,18.40
2021,04,17,16,55,18.00
2021,04,17,16,56,17.30
2021,04,17,16,57,16.80
2021,04,17,16,58,16.40
2021,04,17,16,59,16.00
2021,04,17,17,00,15.70
2021,04,17,17,01,15.70
2021,04,17,17,02,15.60
2021,04,17,17,03,15.40
2021,04,17,17,04,15.30
2021,04,17,17,05,15.10
2021,04,17,17,06,14.90
2021,04,17,17,07,14.80
2021,04,17,17,08,14.70
2021,04,17,17,09,14.70
2021,04,17,17,10,14.60
2021,04,17,17,11,14.50
2021,04,17,17,12,14.50
2021,04,17,17,13,14.40
2021,04,17,17,14,14.50
2021,04,17,17,15,14.60
2021,04,17,17,16,14.70
2021,04,17,17,17,14.70
2021,04,17,17,18,14.80
2021,04,17,17,19,14.80